Year,Month,Day,Hour,Minute,Value (Times are PST for temperature in C)
2014,07,11,00,00,20.90
2014,07,11,00,01,20.90
2014,07,11,00,02,20.90
2014,07,11,00,03,21.00
2014,07,11,00,04,21.00
2014,07,11,00,05,21.10
2014,07,11,00,06,21.10
2014,07,11,00,07,21.00
2014,07,11,00,08,21.00
2014,07,11,00,09,20.90
2014,07,11,00,10,20.90
2014,07,11,00,11,20.80
2014,07,11,00,12,20.70
2014,07,11,00,13,20.60
2014,07,11,00,14,20.60
2014,07,11,00,15,20.60
2014,07,11,00,16,20.60
2014,07,11,00,17,20.50
2014,07,11,00,18,20.60
2014,07,11,00,19,20.60
2014,07,11,00,20,20.60
2014,07,11,00,21,20.60
2014,07,11,00,22,20.70
2014,07,11,00,23,20.70
2014,07,11,00,24,20.70
2014,07,11,00,25,20.70
2014,07,11,00,26,20.70
2014,07,11,00,27,20.70
2014,07,11,00,28,20.70
2014,07,11,00,29,20.70
2014,07,11,00,30,20.70
2014,07,11,00,31,20.70
2014,07,11,00,32,20.70
2014,07,11,00,33,20.70
2014,07,11,00,34,20.70
2014,07,11,00,35,20.80
2014,07,11,00,36,20.80
2014,07,11,00,37,20.90
2014,07,11,00,38,20.90
2014,07,11,00,39,21.00
2014,07,11,00,40,21.00
2014,07,11,00,41,21.00
2014,07,11,00,42,21.00
2014,07,11,00,43,21.10
2014,07,11,00,44,21.10
2014,07,11,00,45,21.10
2014,07,11,00,46,21.10
2014,07,11,00,47,21.10
2014,07,11,00,48,21.10
2014,07,11,00,49,21.10
2014,07,11,00,50,21.10
2014,07,11,00,51,21.10
2014,07,11,00,52,21.00
2014,07,11,00,53,21.00
2014,07,11,00,54,20.90
2014,07,11,00,55,20.90
2014,07,11,00,56,20.80
2014,07,11,00,57,20.90
2014,07,11,00,58,20.90
2014,07,11,00,59,20.90
2014,07,11,01,00,20.90
2014,07,11,01,01,20.90
2014,07,11,01,02,20.90
2014,07,11,01,03,20.90
2014,07,11,01,04,21.00
2014,07,11,01,05,21.00
2014,07,11,01,06,21.10
2014,07,11,01,07,21.20
2014,07,11,01,08,21.30
2014,07,11,01,09,21.30
2014,07,11,01,10,21.30
2014,07,11,01,11,21.40
2014,07,11,01,12,21.40
2014,07,11,01,13,21.40
2014,07,11,01,14,21.40
2014,07,11,01,15,21.40
2014,07,11,01,16,21.40
2014,07,11,01,17,21.30
2014,07,11,01,18,21.30
2014,07,11,01,19,21.30
2014,07,11,01,20,21.20
2014,07,11,01,21,21.20
2014,07,11,01,22,21.10
2014,07,11,01,23,21.10
2014,07,11,01,24,21.10
2014,07,11,01,25,21.00
2014,07,11,01,26,21.00
2014,07,11,01,27,20.90
2014,07,11,01,28,20.90
2014,07,11,01,29,20.80
2014,07,11,01,30,20.80
2014,07,11,01,31,20.80
2014,07,11,01,32,20.80
2014,07,11,01,33,20.80
2014,07,11,01,34,20.80
2014,07,11,01,35,20.80
2014,07,11,01,36,20.80
2014,07,11,01,37,20.90
2014,07,11,01,38,20.90
2014,07,11,01,39,21.00
2014,07,11,01,40,21.10
2014,07,11,01,41,21.20
2014,07,11,01,42,21.20
2014,07,11,01,43,21.20
2014,07,11,01,44,21.30
2014,07,11,01,45,21.30
2014,07,11,01,46,21.30
2014,07,11,01,47,21.30
2014,07,11,01,48,21.30
2014,07,11,01,49,21.40
2014,07,11,01,50,21.40
2014,07,11,01,51,21.40
2014,07,11,01,52,21.40
2014,07,11,01,53,21.40
2014,07,11,01,54,21.40
2014,07,11,01,55,21.40
2014,07,11,01,56,21.40
2014,07,11,01,57,21.30
2014,07,11,01,58,21.30
2014,07,11,01,59,21.20
2014,07,11,02,00,21.20
2014,07,11,02,01,21.10
2014,07,11,02,02,21.10
2014,07,11,02,03,21.00
2014,07,11,02,04,21.00
2014,07,11,02,05,20.90
2014,07,11,02,06,20.90
2014,07,11,02,07,20.80
2014,07,11,02,08,20.80
2014,07,11,02,09,20.80
2014,07,11,02,10,20.90
2014,07,11,02,11,20.80
2014,07,11,02,12,20.80
2014,07,11,02,13,20.80
2014,07,11,02,14,20.80
2014,07,11,02,15,20.70
2014,07,11,02,16,20.60
2014,07,11,02,17,20.60
2014,07,11,02,18,20.60
2014,07,11,02,19,20.60
2014,07,11,02,20,20.50
2014,07,11,02,21,20.50
2014,07,11,02,22,20.40
2014,07,11,02,23,20.40
2014,07,11,02,24,20.40
2014,07,11,02,25,20.40
2014,07,11,02,26,20.40
2014,07,11,02,27,20.30
2014,07,11,02,28,20.30
2014,07,11,02,29,20.30
2014,07,11,02,30,20.30
2014,07,11,02,31,20.30
2014,07,11,02,32,20.20
2014,07,11,02,33,20.20
2014,07,11,02,34,20.20
2014,07,11,02,35,20.20
2014,07,11,02,36,20.20
2014,07,11,02,37,20.20
2014,07,11,02,38,20.20
2014,07,11,02,39,20.20
2014,07,11,02,40,20.20
2014,07,11,02,41,20.20
2014,07,11,02,42,20.20
2014,07,11,02,43,20.30
2014,07,11,02,44,20.30
2014,07,11,02,45,20.20
2014,07,11,02,46,20.20
2014,07,11,02,47,20.20
2014,07,11,02,48,20.20
2014,07,11,02,49,20.20
2014,07,11,02,50,20.20
2014,07,11,02,51,20.20
2014,07,11,02,52,20.10
2014,07,11,02,53,20.10
2014,07,11,02,54,20.00
2014,07,11,02,55,20.00
2014,07,11,02,56,20.00
2014,07,11,02,57,19.90
2014,07,11,02,58,19.90
2014,07,11,02,59,19.90
2014,07,11,03,00,19.90
2014,07,11,03,01,19.80
2014,07,11,03,02,19.80
2014,07,11,03,03,19.80
2014,07,11,03,04,19.80
2014,07,11,03,05,19.70
2014,07,11,03,06,19.70
2014,07,11,03,07,19.70
2014,07,11,03,08,19.70
2014,07,11,03,09,19.60
2014,07,11,03,10,19.60
2014,07,11,03,11,19.60
2014,07,11,03,12,19.60
2014,07,11,03,13,19.60
2014,07,11,03,14,19.50
2014,07,11,03,15,19.50
2014,07,11,03,16,19.50
2014,07,11,03,17,19.50
2014,07,11,03,18,19.50
2014,07,11,03,19,19.40
2014,07,11,03,20,19.40
2014,07,11,03,21,19.40
2014,07,11,03,22,19.40
2014,07,11,03,23,19.40
2014,07,11,03,24,19.30
2014,07,11,03,25,19.30
2014,07,11,03,26,19.30
2014,07,11,03,27,19.30
2014,07,11,03,28,19.30
2014,07,11,03,29,19.30
2014,07,11,03,30,19.30
2014,07,11,03,31,19.30
2014,07,11,03,32,19.30
2014,07,11,03,33,19.30
2014,07,11,03,34,19.30
2014,07,11,03,35,19.20
2014,07,11,03,36,19.20
2014,07,11,03,37,19.20
2014,07,11,03,38,19.20
2014,07,11,03,39,19.20
2014,07,11,03,40,19.20
2014,07,11,03,41,19.20
2014,07,11,03,42,19.30
2014,07,11,03,43,19.30
2014,07,11,03,44,19.30
2014,07,11,03,45,19.30
2014,07,11,03,46,19.20
2014,07,11,03,47,19.20
2014,07,11,03,48,19.20
2014,07,11,03,49,19.10
2014,07,11,03,50,19.00
2014,07,11,03,51,18.90
2014,07,11,03,52,18.80
2014,07,11,03,53,18.80
2014,07,11,03,54,18.70
2014,07,11,03,55,18.70
2014,07,11,03,56,18.70
2014,07,11,03,57,18.60
2014,07,11,03,58,18.60
2014,07,11,03,59,18.50
2014,07,11,04,00,18.50
2014,07,11,04,01,18.40
2014,07,11,04,02,18.40
2014,07,11,04,03,18.40
2014,07,11,04,04,18.40
2014,07,11,04,05,18.40
2014,07,11,04,06,18.50
2014,07,11,04,07,18.50
2014,07,11,04,08,18.50
2014,07,11,04,09,18.50
2014,07,11,04,10,18.50
2014,07,11,04,11,18.60
2014,07,11,04,12,18.60
2014,07,11,04,13,18.60
2014,07,11,04,14,18.60
2014,07,11,04,15,18.60
2014,07,11,04,16,18.50
2014,07,11,04,17,18.50
2014,07,11,04,18,18.50
2014,07,11,04,19,18.50
2014,07,11,04,20,18.40
2014,07,11,04,21,18.40
2014,07,11,04,22,18.40
2014,07,11,04,23,18.40
2014,07,11,04,24,18.40
2014,07,11,04,25,18.30
2014,07,11,04,26,18.30
2014,07,11,04,27,18.30
2014,07,11,04,28,18.30
2014,07,11,04,29,18.20
2014,07,11,04,30,18.20
2014,07,11,04,31,18.10
2014,07,11,04,32,18.10
2014,07,11,04,33,18.10
2014,07,11,04,34,18.00
2014,07,11,04,35,18.00
2014,07,11,04,36,18.00
2014,07,11,04,37,17.90
2014,07,11,04,38,17.90
2014,07,11,04,39,17.90
2014,07,11,04,40,17.90
2014,07,11,04,41,17.90
2014,07,11,04,42,17.80
2014,07,11,04,43,17.80
2014,07,11,04,44,17.80
2014,07,11,04,45,17.80
2014,07,11,04,46,17.80
2014,07,11,04,47,17.80
2014,07,11,04,48,17.80
2014,07,11,04,49,17.90
2014,07,11,04,50,17.90
2014,07,11,04,51,17.90
2014,07,11,04,52,17.90
2014,07,11,04,53,17.90
2014,07,11,04,54,17.90
2014,07,11,04,55,18.00
2014,07,11,04,56,18.00
2014,07,11,04,57,18.00
2014,07,11,04,58,18.00
2014,07,11,04,59,18.10
2014,07,11,05,00,18.10
2014,07,11,05,01,18.00
2014,07,11,05,02,18.00
2014,07,11,05,03,18.00
2014,07,11,05,04,17.90
2014,07,11,05,05,17.90
2014,07,11,05,06,17.90
2014,07,11,05,07,17.90
2014,07,11,05,08,17.90
2014,07,11,05,09,17.90
2014,07,11,05,10,17.90
2014,07,11,05,11,17.90
2014,07,11,05,12,17.90
2014,07,11,05,13,17.90
2014,07,11,05,14,17.90
2014,07,11,05,15,17.90
2014,07,11,05,16,17.90
2014,07,11,05,17,17.90
2014,07,11,05,18,17.90
2014,07,11,05,19,17.80
2014,07,11,05,20,17.80
2014,07,11,05,21,17.80
2014,07,11,05,22,17.80
2014,07,11,05,23,17.80
2014,07,11,05,24,17.70
2014,07,11,05,25,17.70
2014,07,11,05,26,17.70
2014,07,11,05,27,17.70
2014,07,11,05,28,17.70
2014,07,11,05,29,17.70
2014,07,11,05,30,17.70
2014,07,11,05,31,17.70
2014,07,11,05,32,17.70
2014,07,11,05,33,17.80
2014,07,11,05,34,17.80
2014,07,11,05,35,17.90
2014,07,11,05,36,17.90
2014,07,11,05,37,18.00
2014,07,11,05,38,18.00
2014,07,11,05,39,18.10
2014,07,11,05,40,18.20
2014,07,11,05,41,18.20
2014,07,11,05,42,18.20
2014,07,11,05,43,18.30
2014,07,11,05,44,18.30
2014,07,11,05,45,18.30
2014,07,11,05,46,18.40
2014,07,11,05,47,18.40
2014,07,11,05,48,18.50
2014,07,11,05,49,18.50
2014,07,11,05,50,18.60
2014,07,11,05,51,18.60
2014,07,11,05,52,18.70
2014,07,11,05,53,18.70
2014,07,11,05,54,18.70
2014,07,11,05,55,18.80
2014,07,11,05,56,18.80
2014,07,11,05,57,18.80
2014,07,11,05,58,18.80
2014,07,11,05,59,18.80
2014,07,11,06,00,18.90
2014,07,11,06,01,18.80
2014,07,11,06,02,18.80
2014,07,11,06,03,18.80
2014,07,11,06,04,18.80
2014,07,11,06,05,18.90
2014,07,11,06,06,18.90
2014,07,11,06,07,18.90
2014,07,11,06,08,18.90
2014,07,11,06,09,18.90
2014,07,11,06,10,18.90
2014,07,11,06,11,19.00
2014,07,11,06,12,19.00
2014,07,11,06,13,19.10
2014,07,11,06,14,19.10
2014,07,11,06,15,19.10
2014,07,11,06,16,19.20
2014,07,11,06,17,19.20
2014,07,11,06,18,19.20
2014,07,11,06,19,19.20
2014,07,11,06,20,19.30
2014,07,11,06,21,19.30
2014,07,11,06,22,19.40
2014,07,11,06,23,19.40
2014,07,11,06,24,19.40
2014,07,11,06,25,19.40
2014,07,11,06,26,19.50
2014,07,11,06,27,19.50
2014,07,11,06,28,19.50
2014,07,11,06,29,19.60
2014,07,11,06,30,19.60
2014,07,11,06,31,19.60
2014,07,11,06,32,19.60
2014,07,11,06,33,19.70
2014,07,11,06,34,19.70
2014,07,11,06,35,19.70
2014,07,11,06,36,19.70
2014,07,11,06,37,19.70
2014,07,11,06,38,19.70
2014,07,11,06,39,19.70
2014,07,11,06,40,19.70
2014,07,11,06,41,19.70
2014,07,11,06,42,19.70
2014,07,11,06,43,19.70
2014,07,11,06,44,19.70
2014,07,11,06,45,19.70
2014,07,11,06,46,19.70
2014,07,11,06,47,19.70
2014,07,11,06,48,19.70
2014,07,11,06,49,19.70
2014,07,11,06,50,19.70
2014,07,11,06,51,19.70
2014,07,11,06,52,19.70
2014,07,11,06,53,19.70
2014,07,11,06,54,19.70
2014,07,11,06,55,19.80
2014,07,11,06,56,19.80
2014,07,11,06,57,19.80
2014,07,11,06,58,19.80
2014,07,11,06,59,19.80
2014,07,11,07,00,19.90
2014,07,11,07,01,19.90
2014,07,11,07,02,19.90
2014,07,11,07,03,19.90
2014,07,11,07,04,20.00
2014,07,11,07,05,20.00
2014,07,11,07,06,20.10
2014,07,11,07,07,20.10
2014,07,11,07,08,20.10
2014,07,11,07,09,20.10
2014,07,11,07,10,20.10
2014,07,11,07,11,20.10
2014,07,11,07,12,20.20
2014,07,11,07,13,20.20
2014,07,11,07,14,20.20
2014,07,11,07,15,20.20
2014,07,11,07,16,20.20
2014,07,11,07,17,20.20
2014,07,11,07,18,20.20
2014,07,11,07,19,20.30
2014,07,11,07,20,20.30
2014,07,11,07,21,20.30
2014,07,11,07,22,20.30
2014,07,11,07,23,20.40
2014,07,11,07,24,20.40
2014,07,11,07,25,20.50
2014,07,11,07,26,20.50
2014,07,11,07,27,20.60
2014,07,11,07,28,20.60
2014,07,11,07,29,20.60
2014,07,11,07,30,20.70
2014,07,11,07,31,20.70
2014,07,11,07,32,20.70
2014,07,11,07,33,20.80
2014,07,11,07,34,20.80
2014,07,11,07,35,20.80
2014,07,11,07,36,20.90
2014,07,11,07,37,20.90
2014,07,11,07,38,20.90
2014,07,11,07,39,20.90
2014,07,11,07,40,21.00
2014,07,11,07,41,21.00
2014,07,11,07,42,21.10
2014,07,11,07,43,21.10
2014,07,11,07,44,21.10
2014,07,11,07,45,21.20
2014,07,11,07,46,21.20
2014,07,11,07,47,21.20
2014,07,11,07,48,21.30
2014,07,11,07,49,21.30
2014,07,11,07,50,21.30
2014,07,11,07,51,21.40
2014,07,11,07,52,21.40
2014,07,11,07,53,21.40
2014,07,11,07,54,21.50
2014,07,11,07,55,21.50
2014,07,11,07,56,21.60
2014,07,11,07,57,21.60
2014,07,11,07,58,21.70
2014,07,11,07,59,21.70
2014,07,11,08,00,21.80
2014,07,11,08,01,21.80
2014,07,11,08,02,21.80
2014,07,11,08,03,21.80
2014,07,11,08,04,21.80
2014,07,11,08,05,21.80
2014,07,11,08,06,21.80
2014,07,11,08,07,21.80
2014,07,11,08,08,21.80
2014,07,11,08,09,21.70
2014,07,11,08,10,21.70
2014,07,11,08,11,21.60
2014,07,11,08,12,21.60
2014,07,11,08,13,21.60
2014,07,11,08,14,21.50
2014,07,11,08,15,21.50
2014,07,11,08,16,21.50
2014,07,11,08,17,21.50
2014,07,11,08,18,21.50
2014,07,11,08,19,21.50
2014,07,11,08,20,21.50
2014,07,11,08,21,21.40
2014,07,11,08,22,21.40
2014,07,11,08,23,21.40
2014,07,11,08,24,21.40
2014,07,11,08,25,21.40
2014,07,11,08,26,21.40
2014,07,11,08,27,21.40
2014,07,11,08,28,21.40
2014,07,11,08,29,21.40
2014,07,11,08,30,21.40
2014,07,11,08,31,21.50
2014,07,11,08,32,21.50
2014,07,11,08,33,21.50
2014,07,11,08,34,21.60
2014,07,11,08,35,21.60
2014,07,11,08,36,21.60
2014,07,11,08,37,21.70
2014,07,11,08,38,21.70
2014,07,11,08,39,21.70
2014,07,11,08,40,21.70
2014,07,11,08,41,21.70
2014,07,11,08,42,21.70
2014,07,11,08,43,21.80
2014,07,11,08,44,21.80
2014,07,11,08,45,21.80
2014,07,11,08,46,21.80
2014,07,11,08,47,21.80
2014,07,11,08,48,21.90
2014,07,11,08,49,21.90
2014,07,11,08,50,21.90
2014,07,11,08,51,21.90
2014,07,11,08,52,21.90
2014,07,11,08,53,21.90
2014,07,11,08,54,22.00
2014,07,11,08,55,22.00
2014,07,11,08,56,22.10
2014,07,11,08,57,22.10
2014,07,11,08,58,22.20
2014,07,11,08,59,22.30
2014,07,11,09,00,22.30
2014,07,11,09,01,22.30
2014,07,11,09,02,22.30
2014,07,11,09,03,22.30
2014,07,11,09,04,22.40
2014,07,11,09,05,22.40
2014,07,11,09,06,22.40
2014,07,11,09,07,22.40
2014,07,11,09,08,22.40
2014,07,11,09,09,22.40
2014,07,11,09,10,22.40
2014,07,11,09,11,22.50
2014,07,11,09,12,22.60
2014,07,11,09,13,22.70
2014,07,11,09,14,22.80
2014,07,11,09,15,22.80
2014,07,11,09,16,22.90
2014,07,11,09,17,22.90
2014,07,11,09,18,22.90
2014,07,11,09,19,23.00
2014,07,11,09,20,23.00
2014,07,11,09,21,23.00
2014,07,11,09,22,23.00
2014,07,11,09,23,23.00
2014,07,11,09,24,23.10
2014,07,11,09,25,23.10
2014,07,11,09,26,23.10
2014,07,11,09,27,23.10
2014,07,11,09,28,23.20
2014,07,11,09,29,23.30
2014,07,11,09,30,23.30
2014,07,11,09,31,23.40
2014,07,11,09,32,23.40
2014,07,11,09,33,23.40
2014,07,11,09,34,23.50
2014,07,11,09,35,23.50
2014,07,11,09,36,23.50
2014,07,11,09,37,23.50
2014,07,11,09,38,23.50
2014,07,11,09,39,23.60
2014,07,11,09,40,23.70
2014,07,11,09,41,23.70
2014,07,11,09,42,23.70
2014,07,11,09,43,23.80
2014,07,11,09,44,23.80
2014,07,11,09,45,23.90
2014,07,11,09,46,23.90
2014,07,11,09,47,23.90
2014,07,11,09,48,24.00
2014,07,11,09,49,24.00
2014,07,11,09,50,24.10
2014,07,11,09,51,24.00
2014,07,11,09,52,24.00
2014,07,11,09,53,24.00
2014,07,11,09,54,24.00
2014,07,11,09,55,24.10
2014,07,11,09,56,24.10
2014,07,11,09,57,24.10
2014,07,11,09,58,24.10
2014,07,11,09,59,24.10
2014,07,11,10,00,24.10
2014,07,11,10,01,24.10
2014,07,11,10,02,24.10
2014,07,11,10,03,24.20
2014,07,11,10,04,24.20
2014,07,11,10,05,24.20
2014,07,11,10,06,24.30
2014,07,11,10,07,24.30
2014,07,11,10,08,24.30
2014,07,11,10,09,24.30
2014,07,11,10,10,24.30
2014,07,11,10,11,24.30
2014,07,11,10,12,24.30
2014,07,11,10,13,24.30
2014,07,11,10,14,24.30
2014,07,11,10,15,24.30
2014,07,11,10,16,24.40
2014,07,11,10,17,24.40
2014,07,11,10,18,24.40
2014,07,11,10,19,24.30
2014,07,11,10,20,24.30
2014,07,11,10,21,24.30
2014,07,11,10,22,24.40
2014,07,11,10,23,24.40
2014,07,11,10,24,24.40
2014,07,11,10,25,24.40
2014,07,11,10,26,24.50
2014,07,11,10,27,24.50
2014,07,11,10,28,24.50
2014,07,11,10,29,24.50
2014,07,11,10,30,24.50
2014,07,11,10,31,24.50
2014,07,11,10,32,24.50
2014,07,11,10,33,24.50
2014,07,11,10,34,24.50
2014,07,11,10,35,24.50
2014,07,11,10,36,24.50
2014,07,11,10,37,24.50
2014,07,11,10,38,24.50
2014,07,11,10,39,24.60
2014,07,11,10,40,24.60
2014,07,11,10,41,24.60
2014,07,11,10,42,24.60
2014,07,11,10,43,24.60
2014,07,11,10,44,24.60
2014,07,11,10,45,24.50
2014,07,11,10,46,24.50
2014,07,11,10,47,24.50
2014,07,11,10,48,24.50
2014,07,11,10,49,24.60
2014,07,11,10,50,24.60
2014,07,11,10,51,24.60
2014,07,11,10,52,24.50
2014,07,11,10,53,24.50
2014,07,11,10,54,24.50
2014,07,11,10,55,24.40
2014,07,11,10,56,24.40
2014,07,11,10,57,24.40
2014,07,11,10,58,24.40
2014,07,11,10,59,24.40
2014,07,11,11,00,24.40
2014,07,11,11,01,24.40
2014,07,11,11,02,24.40
2014,07,11,11,03,24.40
2014,07,11,11,04,24.40
2014,07,11,11,05,24.40
2014,07,11,11,06,24.40
2014,07,11,11,07,24.40
2014,07,11,11,08,24.40
2014,07,11,11,09,24.40
2014,07,11,11,10,24.40
2014,07,11,11,11,24.50
2014,07,11,11,12,24.60
2014,07,11,11,13,24.70
2014,07,11,11,14,24.70
2014,07,11,11,15,24.70
2014,07,11,11,16,24.70
2014,07,11,11,17,24.70
2014,07,11,11,18,24.80
2014,07,11,11,19,24.80
2014,07,11,11,20,24.80
2014,07,11,11,21,24.80
2014,07,11,11,22,24.80
2014,07,11,11,23,24.90
2014,07,11,11,24,24.90
2014,07,11,11,25,25.00
2014,07,11,11,26,25.10
2014,07,11,11,27,25.10
2014,07,11,11,28,25.20
2014,07,11,11,29,25.20
2014,07,11,11,30,25.20
2014,07,11,11,31,25.20
2014,07,11,11,32,25.20
2014,07,11,11,33,25.30
2014,07,11,11,34,25.30
2014,07,11,11,35,25.40
2014,07,11,11,36,25.40
2014,07,11,11,37,25.30
2014,07,11,11,38,25.30
2014,07,11,11,39,25.30
2014,07,11,11,40,25.20
2014,07,11,11,41,25.20
2014,07,11,11,42,25.10
2014,07,11,11,43,25.10
2014,07,11,11,44,25.00
2014,07,11,11,45,24.90
2014,07,11,11,46,25.00
2014,07,11,11,47,25.00
2014,07,11,11,48,25.10
2014,07,11,11,49,25.10
2014,07,11,11,50,25.10
2014,07,11,11,51,25.10
2014,07,11,11,52,25.10
2014,07,11,11,53,25.00
2014,07,11,11,54,25.00
2014,07,11,11,55,25.00
2014,07,11,11,56,25.00
2014,07,11,11,57,25.00
2014,07,11,11,58,25.00
2014,07,11,11,59,24.90
2014,07,11,12,00,24.80
2014,07,11,12,01,24.80
2014,07,11,12,02,24.80
2014,07,11,12,03,24.80
2014,07,11,12,04,24.80
2014,07,11,12,05,24.80
2014,07,11,12,06,24.80
2014,07,11,12,07,24.80
2014,07,11,12,08,24.70
2014,07,11,12,09,24.70
2014,07,11,12,10,24.80
2014,07,11,12,11,24.80
2014,07,11,12,12,24.80
2014,07,11,12,13,24.70
2014,07,11,12,14,24.70
2014,07,11,12,15,24.70
2014,07,11,12,16,24.80
2014,07,11,12,17,24.80
2014,07,11,12,18,24.90
2014,07,11,12,19,25.00
2014,07,11,12,20,25.10
2014,07,11,12,21,25.10
2014,07,11,12,22,25.20
2014,07,11,12,23,25.20
2014,07,11,12,24,25.10
2014,07,11,12,25,25.20
2014,07,11,12,26,25.10
2014,07,11,12,27,25.10
2014,07,11,12,28,25.20
2014,07,11,12,29,25.20
2014,07,11,12,30,25.30
2014,07,11,12,31,25.40
2014,07,11,12,32,25.50
2014,07,11,12,33,25.60
2014,07,11,12,34,25.60
2014,07,11,12,35,25.60
2014,07,11,12,36,25.70
2014,07,11,12,37,25.70
2014,07,11,12,38,25.70
2014,07,11,12,39,25.70
2014,07,11,12,40,25.80
2014,07,11,12,41,25.80
2014,07,11,12,42,25.80
2014,07,11,12,43,25.80
2014,07,11,12,44,25.80
2014,07,11,12,45,25.80
2014,07,11,12,46,25.80
2014,07,11,12,47,25.80
2014,07,11,12,48,25.90
2014,07,11,12,49,25.90
2014,07,11,12,50,26.00
2014,07,11,12,51,26.00
2014,07,11,12,52,26.10
2014,07,11,12,53,26.10
2014,07,11,12,54,26.20
2014,07,11,12,55,26.20
2014,07,11,12,56,26.20
2014,07,11,12,57,26.30
2014,07,11,12,58,26.30
2014,07,11,12,59,26.30
2014,07,11,13,00,26.40
2014,07,11,13,01,26.40
2014,07,11,13,02,26.40
2014,07,11,13,03,26.50
2014,07,11,13,04,26.50
2014,07,11,13,05,26.50
2014,07,11,13,06,26.60
2014,07,11,13,07,26.70
2014,07,11,13,08,26.70
2014,07,11,13,09,26.70
2014,07,11,13,10,26.80
2014,07,11,13,11,26.90
2014,07,11,13,12,26.90
2014,07,11,13,13,27.00
2014,07,11,13,14,26.90
2014,07,11,13,15,26.90
2014,07,11,13,16,26.90
2014,07,11,13,17,27.00
2014,07,11,13,18,27.10
2014,07,11,13,19,27.30
2014,07,11,13,20,27.30
2014,07,11,13,21,27.40
2014,07,11,13,22,27.40
2014,07,11,13,23,27.50
2014,07,11,13,24,27.40
2014,07,11,13,25,27.40
2014,07,11,13,26,27.50
2014,07,11,13,27,27.50
2014,07,11,13,28,27.60
2014,07,11,13,29,27.60
2014,07,11,13,30,27.60
2014,07,11,13,31,27.70
2014,07,11,13,32,27.70
2014,07,11,13,33,27.80
2014,07,11,13,34,27.80
2014,07,11,13,35,27.80
2014,07,11,13,36,27.80
2014,07,11,13,37,27.80
2014,07,11,13,38,27.80
2014,07,11,13,39,27.80
2014,07,11,13,40,27.80
2014,07,11,13,41,27.80
2014,07,11,13,42,27.80
2014,07,11,13,43,27.90
2014,07,11,13,44,28.00
2014,07,11,13,45,28.00
2014,07,11,13,46,28.10
2014,07,11,13,47,28.10
2014,07,11,13,48,28.00
2014,07,11,13,49,28.10
2014,07,11,13,50,28.00
2014,07,11,13,51,28.00
2014,07,11,13,52,28.00
2014,07,11,13,53,28.00
2014,07,11,13,54,28.00
2014,07,11,13,55,28.00
2014,07,11,13,56,28.00
2014,07,11,13,57,28.00
2014,07,11,13,58,28.10
2014,07,11,13,59,28.20
2014,07,11,14,00,28.20
2014,07,11,14,01,28.20
2014,07,11,14,02,28.20
2014,07,11,14,03,28.30
2014,07,11,14,04,28.30
2014,07,11,14,05,28.40
2014,07,11,14,06,28.40
2014,07,11,14,07,28.50
2014,07,11,14,08,28.40
2014,07,11,14,09,28.40
2014,07,11,14,10,28.40
2014,07,11,14,11,28.40
2014,07,11,14,12,28.40
2014,07,11,14,13,28.50
2014,07,11,14,14,28.50
2014,07,11,14,15,28.50
2014,07,11,14,16,28.40
2014,07,11,14,17,28.40
2014,07,11,14,18,28.40
2014,07,11,14,19,28.40
2014,07,11,14,20,28.40
2014,07,11,14,21,28.40
2014,07,11,14,22,28.50
2014,07,11,14,23,28.60
2014,07,11,14,24,28.60
2014,07,11,14,25,28.60
2014,07,11,14,26,28.60
2014,07,11,14,27,28.70
2014,07,11,14,28,28.80
2014,07,11,14,29,28.90
2014,07,11,14,30,29.00
2014,07,11,14,31,29.00
2014,07,11,14,32,29.00
2014,07,11,14,33,28.90
2014,07,11,14,34,28.90
2014,07,11,14,35,29.00
2014,07,11,14,36,29.00
2014,07,11,14,37,29.10
2014,07,11,14,38,29.10
2014,07,11,14,39,29.20
2014,07,11,14,40,29.20
2014,07,11,14,41,29.20
2014,07,11,14,42,29.20
2014,07,11,14,43,29.20
2014,07,11,14,44,29.20
2014,07,11,14,45,29.20
2014,07,11,14,46,29.30
2014,07,11,14,47,29.40
2014,07,11,14,48,29.50
2014,07,11,14,49,29.70
2014,07,11,14,50,29.70
2014,07,11,14,51,29.80
2014,07,11,14,52,29.80
2014,07,11,14,53,29.80
2014,07,11,14,54,29.80
2014,07,11,14,55,29.80
2014,07,11,14,56,29.90
2014,07,11,14,57,29.90
2014,07,11,14,58,30.00
2014,07,11,14,59,30.00
2014,07,11,15,00,30.10
2014,07,11,15,01,30.20
2014,07,11,15,02,30.30
2014,07,11,15,03,30.30
2014,07,11,15,04,30.30
2014,07,11,15,05,30.30
2014,07,11,15,06,30.30
2014,07,11,15,07,30.40
2014,07,11,15,08,30.40
2014,07,11,15,09,30.40
2014,07,11,15,10,30.30
2014,07,11,15,11,30.30
2014,07,11,15,12,30.20
2014,07,11,15,13,30.10
2014,07,11,15,14,30.00
2014,07,11,15,15,30.00
2014,07,11,15,16,29.90
2014,07,11,15,17,29.90
2014,07,11,15,18,29.90
2014,07,11,15,19,29.90
2014,07,11,15,20,29.90
2014,07,11,15,21,29.90
2014,07,11,15,22,29.90
2014,07,11,15,23,29.90
2014,07,11,15,24,29.90
2014,07,11,15,25,30.00
2014,07,11,15,26,30.10
2014,07,11,15,27,30.20
2014,07,11,15,28,30.30
2014,07,11,15,29,30.30
2014,07,11,15,30,30.30
2014,07,11,15,31,30.40
2014,07,11,15,32,30.40
2014,07,11,15,33,30.50
2014,07,11,15,34,30.60
2014,07,11,15,35,30.60
2014,07,11,15,36,30.60
2014,07,11,15,37,30.60
2014,07,11,15,38,30.60
2014,07,11,15,39,30.60
2014,07,11,15,40,30.60
2014,07,11,15,41,30.60
2014,07,11,15,42,30.60
2014,07,11,15,43,30.60
2014,07,11,15,44,30.50
2014,07,11,15,45,30.50
2014,07,11,15,46,30.40
2014,07,11,15,47,30.50
2014,07,11,15,48,30.50
2014,07,11,15,49,30.60
2014,07,11,15,50,30.60
2014,07,11,15,51,30.60
2014,07,11,15,52,30.60
2014,07,11,15,53,30.60
2014,07,11,15,54,30.70
2014,07,11,15,55,30.70
2014,07,11,15,56,30.70
2014,07,11,15,57,30.70
2014,07,11,15,58,30.80
2014,07,11,15,59,30.80
2014,07,11,16,00,30.80
2014,07,11,16,01,30.80
2014,07,11,16,02,30.80
2014,07,11,16,03,30.70
2014,07,11,16,04,30.70
2014,07,11,16,05,30.70
2014,07,11,16,06,30.60
2014,07,11,16,07,30.50
2014,07,11,16,08,30.40
2014,07,11,16,09,30.40
2014,07,11,16,10,30.50
2014,07,11,16,11,30.50
2014,07,11,16,12,30.50
2014,07,11,16,13,30.50
2014,07,11,16,14,30.50
2014,07,11,16,15,30.50
2014,07,11,16,16,30.60
2014,07,11,16,17,30.70
2014,07,11,16,18,30.70
2014,07,11,16,19,30.70
2014,07,11,16,20,30.70
2014,07,11,16,21,30.60
2014,07,11,16,22,30.50
2014,07,11,16,23,30.50
2014,07,11,16,24,30.40
2014,07,11,16,25,30.40
2014,07,11,16,26,30.40
2014,07,11,16,27,30.40
2014,07,11,16,28,30.40
2014,07,11,16,29,30.30
2014,07,11,16,30,30.30
2014,07,11,16,31,30.40
2014,07,11,16,32,30.50
2014,07,11,16,33,30.50
2014,07,11,16,34,30.60
2014,07,11,16,35,30.50
2014,07,11,16,36,30.60
2014,07,11,16,37,30.60
2014,07,11,16,38,30.70
2014,07,11,16,39,30.70
2014,07,11,16,40,30.70
2014,07,11,16,41,30.70
2014,07,11,16,42,30.70
2014,07,11,16,43,30.80
2014,07,11,16,44,30.90
2014,07,11,16,45,30.90
2014,07,11,16,46,31.00
2014,07,11,16,47,31.10
2014,07,11,16,48,31.20
2014,07,11,16,49,31.20
2014,07,11,16,50,31.20
2014,07,11,16,51,31.20
2014,07,11,16,52,31.20
2014,07,11,16,53,31.30
2014,07,11,16,54,31.40
2014,07,11,16,55,31.50
2014,07,11,16,56,31.50
2014,07,11,16,57,31.60
2014,07,11,16,58,31.60
2014,07,11,16,59,31.70
2014,07,11,17,00,31.70
2014,07,11,17,01,31.70
2014,07,11,17,02,31.70
2014,07,11,17,03,31.70
2014,07,11,17,04,31.80
2014,07,11,17,05,31.90
2014,07,11,17,06,31.90
2014,07,11,17,07,32.00
2014,07,11,17,08,32.00
2014,07,11,17,09,32.10
2014,07,11,17,10,32.00
2014,07,11,17,11,32.00
2014,07,11,17,12,31.90
2014,07,11,17,13,31.80
2014,07,11,17,14,31.70
2014,07,11,17,15,31.70
2014,07,11,17,16,31.60
2014,07,11,17,17,31.60
2014,07,11,17,18,31.60
2014,07,11,17,19,31.60